Location: Acton
(51.4942°N, 0.2232°W)
Time: 13:41:41
(UTC+00:00)

NOSS 3-2 (A) - Pass Details

Date: 18 September 2020
Orbit: 795 x 1413 km, 63.4° (Epoch: 25 October)

Event Time Altitude Azimuth Distance (km) Brightness Sun altitude
Rises 19:58:25 0° 314° (NW) 3,911 8.0 -17.5°
Reaches altitude 10° 20:00:57 10° 313° (NW) 3,034 7.2 -17.8°
Maximum altitude 20:08:17 72° 231° (SW) 1,321 4.2 -18.8°
Enters shadow 20:13:58 22° 152° (SSE) 2,548 5.2 -19.6°
